Location: Derby
(52.9213°N, 1.4761°W)
Time: 16:58:24
(UTC+01:00)

Vanguard 1 - Pass Details

Date: 27 May 2025
Orbit: 649 x 3822 km, 34.3° (Epoch: 14 June)

Event Time Altitude Azimuth Distance (km) Brightness Sun altitude
Rises 15:46:13 0° 219° (SW) 7,936 15.3 45.8°
Reaches altitude 10° 15:52:41 10° 211° (SSW) 6,904 15.2 44.9°
Maximum altitude 16:10:30 32° 160° (SSE) 4,640 13.8 42.5°
Drops below altitude 10° 16:23:36 10° 105° (ESE) 5,104 13.4 40.6°
Sets 16:27:25 0° 96° (E) 5,700 13.5 40.1°
